Orient Glider Airport

Jump to: basic info | weather | comments

Related pages: nearby airports | nearby navaids | notams | map

Basic information (top)

Codes: FAOI
Location: lon -26.039400, lat 27.595600, elev 5,102 ft / 1,555 m msl
Status: small_airport

Weather (top)

Current conditions for Lanseria Airport 19nm (35km) ENE (rec'd 2014/12/22 17:00Z):

FALA 221700Z 31002KT CAVOK 24/16 Q1019 NOSIG

Airport forecast for Lanseria Airport 19nm (35km) ENE (rec'd 2014/12/21 00:00Z):

TAF FALA 212200Z 2200/2224 VRB03KT CAVOK PROB30 
      TEMPO 2200/2202 -TSRA FEW040CB 
      BECMG 2208/2210 33008KT SCT045 
      TEMPO 2213/2220 24010G20KT 5000 TSRA SCT040CB TX30/2213ZTN16/2203Z

Latest comments (top)

Runway Orientation and Airfield Frequency: Runway 36/18 (Main) Runway 11/29 Airfi ... [read]

More... (top)

See also NOTAMs and nearby airports and navaids, or visit the Orient Glider Airport page at the main OurAirports website..